IZ3TCG-13 Weather Reports


time (UTC)temp
C
wind
direction
speed
KPH
gust
KPH
rain 1hr
cm
rain 24hr
cm
rain mn
cm
humidity
%
barometer
mb
20260503035203 8 0 0.0 0.0 0.00 0.00 0.00 90 1007.4
20260503034803 8 0 0.0 0.0 0.00 0.00 0.00 89 1007.4
20260503034403 8 0 0.0 0.0 0.00 0.00 0.00 89 1007.4
20260503034003 8 0 0.0 0.0 0.00 0.00 0.00 88 1007.3
20260503033814 8 0 0.0 0.0 0.00 0.00 0.00 88 1007.2
20260503033413 8 0 0.0 0.0 0.00 0.00 0.00 88 1007.5
20260503032803 8 0 0.0 0.0 0.00 0.00 0.00 88 1007.4
20260503032403 9 0 0.0 0.0 0.00 0.00 0.00 87 1007.4
20260503032003 9 0 0.0 0.0 0.00 0.00 0.00 88 1007.3
20260503031603 8 0 0.0 0.0 0.00 0.00 0.00 88 1007.4
20260503031203 8 0 0.0 0.0 0.00 0.00 0.00 88 1007.3
20260503030803 8 0 0.0 0.0 0.00 0.00 0.00 88 1007.3
20260503030403 9 0 0.0 0.0 0.00 0.00 0.00 87 1007.4
20260503030213 9 0 0.0 0.0 0.00 0.00 0.00 87 1007.4
20260503025604 9 0 0.0 0.0 0.00 0.00 0.00 86 1007.5
20260503025203 9 0 0.0 0.0 0.00 0.00 0.00 86 1007.6
20260503024803 9 0 0.0 0.0 0.00 0.00 0.00 86 1007.8
20260503024403 10 0 0.0 0.0 0.00 0.00 0.00 85 1007.5
20260503024215 10 0 0.0 0.0 0.00 0.00 0.00 85 1007.5
20260503023603 10 0 0.0 0.0 0.00 0.00 0.00 83 1007.6
20260503023203 10 262 0.0 3.2 0.00 0.00 0.00 83 1007.6
20260503023013 10 262 0.0 3.2 0.00 0.00 0.00 82 1007.6
20260503022403 10 252 3.2 3.2 0.00 0.00 0.00 83 1007.6
20260503022003 10 0 0.0 0.0 0.00 0.00 0.00 85 1007.8
20260503021603 9 0 0.0 0.0 0.00 0.00 0.00 86 1007.7
20260503021203 9 0 0.0 0.0 0.00 0.00 0.00 85 1007.7
20260503020803 10 247 0.0 3.2 0.00 0.00 0.00 86 1007.5
20260503020403 9 247 0.0 3.2 0.00 0.00 0.00 86 1008.0
20260503020003 9 247 0.0 3.2 0.00 0.00 0.00 87 1007.8
20260503015603 9 0 0.0 0.0 0.00 0.00 0.00 86 1007.6
20260503015203 9 0 0.0 0.0 0.00 0.00 0.00 86 1007.8
20260503014804 9 0 0.0 0.0 0.00 0.00 0.00 85 1007.8
20260503014403 9 0 0.0 0.0 0.00 0.00 0.00 85 1007.7
20260503014003 9 0 0.0 0.0 0.00 0.00 0.00 85 1007.7
20260503013603 10 0 0.0 0.0 0.00 0.00 0.00 85 1007.7
20260503013203 10 0 0.0 0.0 0.00 0.00 0.00 84 1007.8
20260503012803 10 0 0.0 0.0 0.00 0.00 0.00 84 1007.9
20260503012403 10 0 0.0 0.0 0.00 0.00 0.00 84 1007.8
20260503012003 10 0 0.0 0.0 0.00 0.00 0.00 83 1007.8
20260503011603 10 0 0.0 0.0 0.00 0.00 0.00 83 1007.7
20260503011416 10 0 0.0 0.0 0.00 0.00 0.00 83 1007.8
20260503010803 10 0 0.0 0.0 0.00 0.00 0.00 82 1007.8
20260503010403 10 0 0.0 0.0 0.00 0.00 0.00 82 1008.0
20260503010003 10 0 0.0 0.0 0.00 0.00 0.00 82 1007.8
20260503005603 10 0 0.0 0.0 0.00 0.00 0.00 81 1007.9
20260503005413 10 0 0.0 0.0 0.00 0.00 0.00 81 1008.0
20260503005013 11 0 0.0 0.0 0.00 0.00 0.00 80 1007.6
20260503004403 11 0 0.0 0.0 0.00 0.00 0.00 79 1007.9
20260503004003 11 0 0.0 0.0 0.00 0.00 0.00 79 1008.0
20260503003603 11 0 0.0 0.0 0.00 0.00 0.00 79 1008.0
20260503003203 11 0 0.0 0.0 0.00 0.00 0.00 78 1008.0
20260503002803 11 0 0.0 0.0 0.00 0.00 0.00 78 1008.0
20260503002614 11 225 0.0 3.2 0.00 0.00 0.00 77 1008.2
20260503002003 12 213 0.0 3.2 0.00 0.00 0.00 76 1008.1
20260503001603 11 207 0.0 3.2 0.00 0.00 0.00 75 1008.2
20260503001203 11 0 0.0 0.0 0.00 0.00 0.00 76 1008.0
20260503000803 11 0 0.0 0.0 0.00 0.00 0.00 76 1008.1
20260503000403 11 0 0.0 0.0 0.00 0.00 0.00 76 1008.4
20260503000003 11 0 0.0 0.0 0.00 0.00 0.00 76 1008.3
20260502235603 12 0 0.0 0.0 0.00 0.00 0.00 76 1008.4
20260502235203 12 0 0.0 0.0 0.00 0.00 0.00 74 1008.5
20260502234803 11 0 0.0 0.0 0.00 0.00 0.00 75 1008.4
20260502234403 11 0 0.0 0.0 0.00 0.00 0.00 76 1008.5
20260502234003 11 0 0.0 0.0 0.00 0.00 0.00 76 1008.4
20260502233603 11 0 0.0 0.0 0.00 0.00 0.00 76 1008.4
20260502233416 11 0 0.0 0.0 0.00 0.00 0.00 77 1008.4
20260502232804 11 0 0.0 0.0 0.00 0.00 0.00 75 1008.5
20260502232403 11 0 0.0 0.0 0.00 0.00 0.00 74 1008.5
20260502232003 12 0 0.0 0.0 0.00 0.00 0.00 73 1008.5
20260502231603 12 0 0.0 0.0 0.00 0.00 0.00 74 1008.3
20260502231203 12 0 0.0 0.0 0.00 0.00 0.00 74 1008.6
20260502231017 12 0 0.0 0.0 0.00 0.00 0.00 74 1008.5
20260502230403 12 0 0.0 0.0 0.00 0.00 0.00 72 1008.6
20260502230004 12 0 0.0 0.0 0.00 0.00 0.00 71 1008.7
20260502225603 12 0 0.0 0.0 0.00 0.00 0.00 72 1008.5
20260502225203 12 0 0.0 0.0 0.00 0.00 0.00 72 1008.6
20260502224803 12 0 0.0 0.0 0.00 0.00 0.00 71 1008.6
20260502224403 12 0 0.0 0.0 0.00 0.00 0.00 71 1008.8
20260502224003 12 0 0.0 0.0 0.00 0.00 0.00 70 1008.6
20260502223817 12 0 0.0 0.0 0.00 0.00 0.00 69 1008.6
20260502223203 13 0 0.0 0.0 0.00 0.00 0.00 69 1008.6
20260502222804 12 0 0.0 0.0 0.00 0.00 0.00 70 1008.9
20260502222404 12 0 0.0 0.0 0.00 0.00 0.00 71 1008.7
20260502222004 13 0 0.0 0.0 0.00 0.00 0.00 70 1009.1
20260502221814 13 0 0.0 0.0 0.00 0.00 0.00 70 1008.7
20260502221203 12 0 0.0 0.0 0.00 0.00 0.00 70 1008.6
20260502221013 13 0 0.0 0.0 0.00 0.00 0.00 70 1008.8
20260502220617 13 0 0.0 0.0 0.00 0.00 0.00 69 1009.0
20260502220007 13 0 0.0 0.0 0.00 0.00 0.00 70 1008.8
20260502215603 13 0 0.0 0.0 0.00 0.00 0.00 69 1008.8
20260502215203 13 0 0.0 0.0 0.00 0.00 0.00 69 1008.8
20260502214803 13 0 0.0 0.0 0.00 0.00 0.00 67 1008.6
20260502214403 13 0 0.0 0.0 0.00 0.00 0.00 66 1008.9
20260502214213 14 0 0.0 0.0 0.00 0.00 0.00 65 1008.8
20260502213603 14 0 0.0 0.0 0.00 0.00 0.00 65 1008.8
20260502213417 14 0 0.0 0.0 0.00 0.00 0.00 65 1008.9
20260502212803 15 202 0.0 3.2 0.00 0.00 0.00 64 1008.9
20260502212616 15 202 0.0 3.2 0.00 0.00 0.00 64 1008.9
20260502212004 14 0 0.0 0.0 0.00 0.00 0.00 64 1008.6
20260502211603 15 0 0.0 0.0 0.00 0.00 0.00 64 1008.8
20260502211203 15 0 0.0 0.0 0.00 0.00 0.00 63 1008.8
20260502210803 15 0 0.0 0.0 0.00 0.00 0.00 62 1008.7
20260502210403 15 0 0.0 0.0 0.00 0.00 0.00 62 1008.9
20260502210004 15 0 0.0 0.0 0.00 0.00 0.00 62 1009.0
20260502205603 15 0 0.0 0.0 0.00 0.00 0.00 62 1008.9
20260502205416 15 0 0.0 0.0 0.00 0.00 0.00 62 1008.9
20260502204803 15 0 0.0 0.0 0.00 0.00 0.00 62 1008.9
20260502204615 15 0 0.0 0.0 0.00 0.00 0.00 61 1008.8
20260502204214 15 0 0.0 0.0 0.00 0.00 0.00 61 1008.9
20260502203603 15 0 0.0 0.0 0.00 0.00 0.00 62 1008.8
20260502203413 15 0 0.0 0.0 0.00 0.00 0.00 63 1008.9
20260502202803 15 0 0.0 0.0 0.00 0.00 0.00 62 1008.8
20260502202403 15 0 0.0 0.0 0.00 0.00 0.00 61 1009.1
20260502202003 15 0 0.0 0.0 0.00 0.00 0.00 61 1008.9
20260502201603 15 0 0.0 0.0 0.00 0.00 0.00 62 1009.0
20260502201203 15 0 0.0 0.0 0.00 0.00 0.00 60 1009.1
20260502201014 15 0 0.0 0.0 0.00 0.00 0.00 60 1009.1
20260502200403 16 0 0.0 0.0 0.00 0.00 0.00 59 1009.0
20260502200004 16 0 0.0 0.0 0.00 0.00 0.00 59 1008.9
20260502195603 16 0 0.0 0.0 0.00 0.00 0.00 58 1009.1
20260502195203 16 0 0.0 0.0 0.00 0.00 0.00 58 1008.9
20260502194803 16 0 0.0 0.0 0.00 0.00 0.00 57 1009.0
20260502194403 17 0 0.0 0.0 0.00 0.00 0.00 56 1009.0
20260502194003 17 0 0.0 0.0 0.00 0.00 0.00 55 1008.9
20260502193603 17 202 0.0 3.2 0.00 0.00 0.00 55 1009.0
20260502193203 17 202 0.0 3.2 0.00 0.00 0.00 55 1008.9
20260502192803 17 0 0.0 0.0 0.00 0.00 0.00 55 1009.1
20260502192617 17 0 0.0 0.0 0.00 0.00 0.00 55 1008.7
20260502192003 17 0 0.0 0.0 0.00 0.00 0.00 55 1009.0
20260502191816 17 0 0.0 0.0 0.00 0.00 0.00 54 1009.1
20260502191203 17 0 0.0 0.0 0.00 0.00 0.00 54 1008.9
20260502191015 17 0 0.0 0.0 0.00 0.00 0.00 55 1008.9
20260502190614 17 0 0.0 0.0 0.00 0.00 0.00 54 1008.7
20260502190004 18 0 0.0 0.0 0.00 0.00 0.00 53 1008.9
20260502185603 18 0 0.0 0.0 0.00 0.00 0.00 53 1008.9
20260502185417 18 0 0.0 0.0 0.00 0.00 0.00 52 1008.7
20260502184803 18 0 0.0 0.0 0.00 0.00 0.00 51 1008.6
20260502184403 18 0 0.0 0.0 0.00 0.00 0.00 51 1008.9
20260502184003 18 0 0.0 0.0 0.00 0.00 0.00 50 1008.8
20260502183603 19 180 0.0 3.2 0.00 0.00 0.00 49 1008.7
20260502183203 20 194 0.0 3.2 0.00 0.00 0.00 47 1008.6
20260502183013 20 194 0.0 3.2 0.00 0.00 0.00 47 1008.7
20260502182613 20 180 0.0 3.2 0.00 0.00 0.00 47 1008.5
20260502182003 20 161 0.0 3.2 0.00 0.00 0.00 45 1008.7
20260502181603 20 171 0.0 3.2 0.00 0.00 0.00 45 1008.6
20260502181203 20 172 0.0 3.2 0.00 0.00 0.00 45 1008.8
20260502180803 21 173 0.0 3.2 0.00 0.00 0.00 45 1008.9
20260502180615 21 170 1.6 3.2 0.00 0.00 0.00 44 1009.0
20260502180214 21 169 0.0 3.2 0.00 0.00 0.00 44 1008.5
20260502164004 24 201 3.2 6.4 0.00 0.00 0.00 37 1008.7
20260502163603 24 201 1.6 6.4 0.00 0.00 0.00 37 1008.6
20260502163203 24 174 1.6 6.4 0.00 0.00 0.00 37 1008.6
20260502163015 24 162 1.6 6.4 0.00 0.00 0.00 37 1008.9
20260502162403 24 164 3.2 12.9 0.00 0.00 0.00 36 1009.0
20260502162004 24 168 3.2 12.9 0.00 0.00 0.00 36 1008.9
20260502161603 25 187 6.4 14.5 0.00 0.00 0.00 36 1008.8
20260502161203 25 179 3.2 14.5 0.00 0.00 0.00 37 1008.8
20260502160803 25 143 9.7 14.5 0.00 0.00 0.00 35 1009.0
20260502160403 25 153 3.2 6.4 0.00 0.00 0.00 35 1008.9
20260502152003 25 201 3.2 12.9 0.00 0.00 0.00 35 1009.4
20260502151603 25 177 3.2 9.7 0.00 0.00 0.00 36 1009.5
20260502151203 26 170 3.2 9.7 0.00 0.00 0.00 35 1009.5
20260502150803 26 169 0.0 9.7 0.00 0.00 0.00 35 1009.3
20260502150403 26 164 3.2 12.9 0.00 0.00 0.00 34 1009.5
20260502150216 25 171 3.2 12.9 0.00 0.00 0.00 34 1009.3
20260502130613 25 167 1.6 11.3 0.00 0.00 0.00 37 1010.8
20260502123603 24 156 3.2 12.9 0.00 0.00 0.00 35 1011.2
20260502123413 24 169 6.4 12.9 0.00 0.00 0.00 35 1011.5
20260502122803 24 178 3.2 14.5 0.00 0.00 0.00 34 1011.4
20260502122617 24 185 3.2 14.5 0.00 0.00 0.00 35 1011.4
20260502122003 24 222 3.2 11.3 0.00 0.00 0.00 34 1011.4
20260502121603 24 207 4.8 11.3 0.00 0.00 0.00 35 1011.5
20260502121415 24 204 3.2 11.3 0.00 0.00 0.00 35 1011.7
20260502120803 25 228 3.2 12.9 0.00 0.00 0.00 35 1011.6
20260502120403 24 228 3.2 12.9 0.00 0.00 0.00 37 1011.6
20260502115817 24 218 6.4 9.7 0.00 0.00 0.00 36 1011.7
20260502115203 24 152 3.2 9.7 0.00 0.00 0.00 35 1011.7
20260502114803 23 172 1.6 11.3 0.00 0.00 0.00 37 1011.6
20260502114403 24 186 1.6 11.3 0.00 0.00 0.00 38 1012.0
20260502114003 25 163 6.4 11.3 0.00 0.00 0.00 34 1011.9
20260502113603 25 161 3.2 6.4 0.00 0.00 0.00 36 1011.9
20260502113413 24 182 1.6 9.7 0.00 0.00 0.00 36 1011.9
20260502112803 24 220 3.2 9.7 0.00 0.00 0.00 34 1011.9
20260502112403 25 205 3.2 9.7 0.00 0.00 0.00 34 1011.9
20260502112003 24 189 4.8 9.7 0.00 0.00 0.00 35 1012.1
20260502111603 24 131 1.6 6.4 0.00 0.00 0.00 36 1012.1
20260502111203 25 150 4.8 6.4 0.00 0.00 0.00 35 1012.1
20260502110804 25 177 1.6 11.3 0.00 0.00 0.00 36 1012.1
20260502110403 25 176 3.2 11.3 0.00 0.00 0.00 35 1012.3
20260502110213 25 174 1.6 11.3 0.00 0.00 0.00 36 1012.2
20260502105603 25 144 6.4 11.3 0.00 0.00 0.00 36 1012.2
20260502105417 25 152 1.6 6.4 0.00 0.00 0.00 38 1012.2
20260502104803 25 268 1.6 12.9 0.00 0.00 0.00 36 1012.4
20260502104403 23 258 1.6 12.9 0.00 0.00 0.00 37 1012.6
20260502104003 23 236 6.4 12.9 0.00 0.00 0.00 39 1012.4
20260502103603 24 221 1.6 11.3 0.00 0.00 0.00 36 1012.7
20260502103203 23 213 3.2 11.3 0.00 0.00 0.00 35 1012.7
20260502102803 23 191 3.2 11.3 0.00 0.00 0.00 36 1012.7
20260502102613 23 161 4.8 9.7 0.00 0.00 0.00 36 1012.7
20260502102217 23 152 3.2 9.7 0.00 0.00 0.00 36 1012.9
20260502101603 23 187 0.0 9.7 0.00 0.00 0.00 36 1013.0
20260502101203 23 163 3.2 6.4 0.00 0.00 0.00 36 1013.0
20260502100803 23 171 4.8 9.7 0.00 0.00 0.00 35 1013.1
20260502100403 22 210 1.6 9.7 0.00 0.00 0.00 39 1013.0
20260502091203 22 321 0.0 3.2 0.00 0.00 0.00 39 1010.2
20260502090803 22 276 0.0 6.4 0.00 0.00 0.00 40 1010.1
20260502090403 21 247 0.0 6.4 0.00 0.00 0.00 39 1010.2
20260502071208 17 16 3.2 6.4 0.00 0.00 0.00 49 1010.8
20260502070803 17 14 3.2 6.4 0.00 0.00 0.00 50 1010.8
20260502070403 17 339 0.0 6.4 0.00 0.00 0.00 50 1010.8
20260502070003 17 282 3.2 3.2 0.00 0.00 0.00 51 1010.7
20260502065603 17 278 0.0 6.4 0.00 0.00 0.00 53 1010.8
20260502065203 17 280 1.6 6.4 0.00 0.00 0.00 54 1010.8
20260502064803 16 282 1.6 6.4 0.00 0.00 0.00 56 1010.8
20260502064404 16 281 3.2 6.4 0.00 0.00 0.00 57 1010.8
20260502064004 16 268 0.0 6.4 0.00 0.00 0.00 55 1010.8
20260502063603 16 270 0.0 6.4 0.00 0.00 0.00 56 1010.8
20260502063203 15 269 0.0 6.4 0.00 0.00 0.00 58 1010.9
20260502063017 15 281 3.2 6.4 0.00 0.00 0.00 58 1010.8
20260502062403 15 299 1.6 6.4 0.00 0.00 0.00 57 1010.9
20260502062003 15 294 0.0 6.4 0.00 0.00 0.00 59 1011.0
20260502061603 14 294 0.0 6.4 0.00 0.00 0.00 59 1010.9
20260502061203 15 297 3.2 6.4 0.00 0.00 0.00 59 1010.8
20260502060803 15 337 0.0 3.2 0.00 0.00 0.00 61 1011.0
20260502060613 14 330 0.0 3.2 0.00 0.00 0.00 60 1011.1
20260502060003 13 307 1.6 3.2 0.00 0.00 0.00 60 1010.8
20260502055603 13 291 0.0 3.2 0.00 0.00 0.00 62 1011.3
20260502055416 13 283 1.6 3.2 0.00 0.00 0.00 62 1010.9
20260502054803 12 270 3.2 3.2 0.00 0.00 0.00 64 1011.2
20260502054403 12 270 1.6 3.2 0.00 0.00 0.00 68 1011.0
20260502054003 11 270 1.6 3.2 0.00 0.00 0.00 73 1010.9
20260502053603 11 270 1.6 3.2 0.00 0.00 0.00 74 1011.0
20260502053203 11 270 0.0 3.2 0.00 0.00 0.00 74 1011.2
20260502053013 11 270 1.6 3.2 0.00 0.00 0.00 73 1011.0
20260502052403 11 270 0.0 3.2 0.00 0.00 0.00 75 1010.9
20260502052003 10 270 1.6 3.2 0.00 0.00 0.00 77 1010.9
20260502051603 10 270 0.0 3.2 0.00 0.00 0.00 79 1011.0
20260502051203 10 270 0.0 3.2 0.00 0.00 0.00 79 1011.0
20260502050803 9 0 0.0 0.0 0.00 0.00 0.00 79 1010.9
20260502050403 9 0 0.0 0.0 0.00 0.00 0.00 79 1010.8
20260502050004 9 0 0.0 0.0 0.00 0.00 0.00 80 1010.9
20260502045603 8 0 0.0 0.0 0.00 0.00 0.00 79 1011.0
20260502045203 8 0 0.0 0.0 0.00 0.00 0.00 80 1010.9
20260502044803 8 0 0.0 0.0 0.00 0.00 0.00 81 1010.9
20260502044403 8 0 0.0 0.0 0.00 0.00 0.00 82 1010.7
20260502044003 7 0 0.0 0.0 0.00 0.00 0.00 82 1010.9
20260502043603 7 0 0.0 0.0 0.00 0.00 0.00 82 1010.8
20260502043414 7 0 0.0 0.0 0.00 0.00 0.00 82 1010.9
20260502042803 7 0 0.0 0.0 0.00 0.00 0.00 83 1010.6
20260502042403 7 0 0.0 0.0 0.00 0.00 0.00 86 1010.8
20260502042003 7 0 0.0 0.0 0.00 0.00 0.00 86 1010.8
20260502041816 7 0 0.0 0.0 0.00 0.00 0.00 85 1010.6
20260502041203 7 0 0.0 0.0 0.00 0.00 0.00 86 1011.0
20260502040803 7 0 0.0 0.0 0.00 0.00 0.00 86 1010.9
20260502040403 6 0 0.0 0.0 0.00 0.00 0.00 87 1010.9
20260502040004 6 0 0.0 0.0 0.00 0.00 0.00 87 1010.8
20260502035603 6 0 0.0 0.0 0.00 0.00 0.00 86 1010.7